GW1468 Weather Reports


time (UTC)temp
C
wind
direction
speed
KPH
gust
KPH
rain 1hr
cm
rain 24hr
cm
rain mn
cm
humidity
%
barometer
mb
20260503054237 2 63 0.0 0.0 0.00 0.00 0.00 97
20260503053623 2 63 1.6 1.6 0.00 0.00 0.00 97
20260503053051 2 63 0.0 0.0 0.00 0.00 0.00 97
20260503052424 2 64 1.6 1.6 0.00 0.00 0.00 97
20260503051854 2 63 0.0 1.6 0.00 0.00 0.00 97
20260503051244 2 64 0.0 0.0 0.00 0.00 0.00 97
20260503050649 2 64 0.0 0.0 0.00 0.00 0.00 97
20260503050053 2 64 0.0 0.0 0.00 0.00 0.00 97
20260503045418 2 64 0.0 0.0 0.00 0.00 0.00 97
20260503044845 2 64 0.0 1.6 0.00 0.00 0.00 97
20260503044242 2 64 0.0 0.0 0.00 0.00 0.00 96
20260503043639 2 64 0.0 0.0 0.00 0.00 0.00 96
20260503043016 2 64 0.0 0.0 0.00 0.00 0.00 96
20260503042443 2 64 0.0 1.6 0.00 0.00 0.00 96
20260503041823 3 64 0.0 1.6 0.00 0.00 0.00 95
20260503040623 3 64 0.0 0.0 0.00 0.00 0.00 95
20260503040047 3 64 0.0 0.0 0.00 0.00 0.00 94
20260503035451 3 63 0.0 0.0 0.00 0.00 0.00 94
20260503034851 3 64 0.0 0.0 0.00 0.00 0.00 94
20260503034216 3 64 0.0 0.0 0.00 0.00 0.00 94
20260503033638 3 64 0.0 0.0 0.00 0.00 0.00 93
20260503032419 3 64 0.0 0.0 0.00 0.00 0.00 92
20260503031839 4 64 0.0 0.0 0.00 0.00 0.00 92
20260503031244 4 64 0.0 0.0 0.00 0.00 0.00 91
20260503030642 4 64 0.0 0.0 0.00 0.00 0.00 90
20260503030024 4 64 0.0 0.0 0.00 0.00 0.00 89
20260503025424 5 64 0.0 0.0 0.00 0.00 0.00 88
20260503024829 5 64 0.0 0.0 0.00 0.00 0.00 88
20260503024233 5 63 0.0 0.0 0.00 0.00 0.00 88
20260503023618 5 64 0.0 0.0 0.00 0.00 0.00 87
20260503023036 6 64 0.0 0.0 0.00 0.00 0.00 85
20260503022451 6 63 0.0 0.0 0.00 0.00 0.00 84
20260503021851 6 64 0.0 0.0 0.00 0.00 0.00 85
20260503021241 6 64 0.0 0.0 0.00 0.00 0.00 85
20260503020644 6 64 0.0 0.0 0.00 0.00 0.00 84
20260503020048 6 64 0.0 0.0 0.00 0.00 0.00 84
20260503014817 6 64 0.0 1.6 0.00 0.00 0.00 80
20260503014252 6 63 0.0 0.0 0.00 0.00 0.00 79
20260503013626 7 63 0.0 0.0 0.00 0.00 0.00 78
20260503013014 7 64 0.0 0.0 0.00 0.00 0.00 77
20260503011811 7 64 0.0 0.0 0.00 0.00 0.00 77
20260503011231 7 64 0.0 0.0 0.00 0.00 0.00 75
20260503010623 7 64 0.0 1.6 0.00 0.00 0.00 75
20260503010028 7 64 0.0 0.0 0.00 0.00 0.00 74
20260503005413 7 64 0.0 0.0 0.00 0.00 0.00 74
20260503004843 7 64 0.0 0.0 0.00 0.00 0.00 73
20260503004211 7 64 0.0 0.0 0.00 0.00 0.00 70
20260503003641 8 64 0.0 0.0 0.00 0.00 0.00 71
20260503003018 8 64 0.0 0.0 0.00 0.00 0.00 69
20260503001815 8 64 0.0 0.0 0.00 0.00 0.00 65
20260503001232 8 64 0.0 0.0 0.00 0.00 0.00 66
20260503000048 9 63 0.0 1.6 0.00 0.00 0.00 61
20260502235410 10 64 0.0 1.6 0.00 0.00 0.00 62
20260502234841 10 166 4.8 6.4 0.00 0.00 0.00 54
20260502234245 10 64 0.0 0.0 0.00 0.00 0.00 61
20260502233641 10 64 0.0 1.6 0.00 0.00 0.00 59
20260502232429 10 58 0.0 1.6 0.00 0.00 0.00 55
20260502231840 11 157 3.2 6.4 0.00 0.00 0.00 51
20260502231212 11 104 1.6 6.4 0.00 0.00 0.00 49
20260502230630 11 226 3.2 6.4 0.00 0.00 0.00 49
20260502230040 11 141 0.0 3.2 0.00 0.00 0.00 53
20260502225434 11 73 0.0 3.2 0.00 0.00 0.00 56
20260502224832 11 124 3.2 4.8 0.00 0.00 0.00 50
20260502224227 12 64 0.0 1.6 0.00 0.00 0.00 52
20260502223035 11 28 1.6 1.6 0.00 0.00 0.00 52
20260502222421 11 47 1.6 3.2 0.00 0.00 0.00 52
20260502221839 11 164 0.0 1.6 0.00 0.00 0.00 53
20260502221254 11 164 1.6 3.2 0.00 0.00 0.00 50
20260502220621 11 38 3.2 9.7 0.00 0.00 0.00 48
20260502220030 12 120 4.8 11.3 0.00 0.00 0.00 49
20260502215411 13 61 3.2 3.2 0.00 0.00 0.00 47
20260502214823 12 159 3.2 9.7 0.00 0.00 0.00 47
20260502213651 12 137 1.6 9.7 0.00 0.00 0.00 48
20260502213041 12 254 3.2 9.7 0.00 0.00 0.00 49
20260502212448 12 184 6.4 6.4 0.00 0.00 0.00 49
20260502211814 11 59 3.2 6.4 0.00 0.00 0.00 47
20260502211238 11 136 1.6 6.4 0.00 0.00 0.00 48
20260502210627 11 77 1.6 4.8 0.00 0.00 0.00 50
20260502210034 11 78 3.2 3.2 0.00 0.00 0.00 51
20260502205414 12 25 0.0 1.6 0.00 0.00 0.00 50
20260502204235 12 121 6.4 6.4 0.00 0.00 0.00 47
20260502203612 12 114 1.6 4.8 0.00 0.00 0.00 47
20260502203052 13 89 6.4 12.9 0.00 0.00 0.00 44
20260502202443 11 75 1.6 4.8 0.00 0.00 0.00 49
20260502201845 11 51 3.2 12.9 0.00 0.00 0.00 49
20260502201211 11 148 1.6 14.5 0.00 0.00 0.00 50
20260502200650 12 102 1.6 4.8 0.00 0.00 0.00 47
20260502200039 12 91 3.2 3.2 0.00 0.00 0.00 46
20260502195414 12 47 3.2 4.8 0.00 0.00 0.00 47
20260502194838 12 40 4.8 16.1 0.00 0.00 0.00 45
20260502194248 13 77 4.8 9.7 0.00 0.00 0.00 42
20260502193634 13 161 3.2 9.7 0.00 0.00 0.00 45
20260502193038 12 36 1.6 3.2 0.00 0.00 0.00 46
20260502192426 13 52 6.4 17.7 0.00 0.00 0.00 45
20260502191852 12 14 1.6 4.8 0.00 0.00 0.00 46
20260502190615 12 44 4.8 11.3 0.00 0.00 0.00 45
20260502190018 12 40 3.2 3.2 0.00 0.00 0.00 47
20260502185437 12 161 1.6 19.3 0.00 0.00 0.00 47
20260502184255 11 123 1.6 12.9 0.00 0.00 0.00 47
20260502183654 11 170 0.0 4.8 0.00 0.00 0.00 47
20260502183016 11 114 0.0 6.4 0.00 0.00 0.00 48
20260502182440 12 85 8.0 11.3 0.00 0.00 0.00 47
20260502181833 12 31 1.6 3.2 0.00 0.00 0.00 50
20260502181254 12 23 1.6 3.2 0.00 0.00 0.00 47
20260502180621 11 50 0.0 4.8 0.00 0.00 0.00 49
20260502164244 11 52 4.8 11.3 0.00 0.00 0.00 49
20260502163631 11 169 3.2 9.7 0.00 0.00 0.00 50
20260502163054 12 217 3.2 4.8 0.00 0.00 0.00 50
20260502162442 12 160 3.2 12.9 0.00 0.00 0.00 47
20260502161816 12 40 0.0 6.4 0.00 0.00 0.00 46
20260502161221 11 60 3.2 4.8 0.00 0.00 0.00 49
20260502160623 11 86 3.2 11.3 0.00 0.00 0.00 49
20260502151833 12 62 1.6 3.2 0.00 0.00 0.00 51
20260502151241 11 208 0.0 4.8 0.00 0.00 0.00 52
20260502150650 11 323 1.6 3.2 0.00 0.00 0.00 54
20260502130631 8 57 1.6 3.2 0.00 0.00 0.00 70
20260502123635 6 42 0.0 0.0 0.00 0.00 0.00 85
20260502122440 5 42 0.0 0.0 0.00 0.00 0.00 87
20260502121222 5 44 0.0 0.0 0.00 0.00 0.00 89
20260502120644 5 44 1.6 1.6 0.00 0.00 0.00 90
20260502115451 4 45 0.0 0.0 0.00 0.00 0.00 92
20260502114813 4 45 0.0 1.6 0.00 0.00 0.00 92
20260502114232 4 46 0.0 1.6 0.00 0.00 0.00 92
20260502113611 4 46 0.0 0.0 0.00 0.00 0.00 93
20260502113039 4 46 0.0 0.0 0.00 0.00 0.00 93
20260502112437 3 46 0.0 1.6 0.00 0.00 0.00 94
20260502111828 3 46 0.0 0.0 0.00 0.00 0.00 95
20260502111226 3 46 0.0 0.0 0.00 0.00 0.00 95
20260502110017 3 46 0.0 0.0 0.00 0.00 0.00 95
20260502105418 3 46 0.0 0.0 0.00 0.00 0.00 95
20260502104829 3 46 0.0 0.0 0.00 0.00 0.00 94
20260502104217 3 46 0.0 0.0 0.00 0.00 0.00 94
20260502103635 3 46 0.0 0.0 0.00 0.00 0.00 93
20260502103043 3 46 0.0 0.0 0.00 0.00 0.00 93
20260502102419 3 47 0.0 1.6 0.00 0.00 0.00 93
20260502101847 3 47 0.0 0.0 0.00 0.00 0.00 92
20260502100631 4 46 0.0 0.0 0.00 0.00 0.00 91
20260502091252 5 47 0.0 0.0 0.00 0.00 0.00 85
20260502090624 5 46 0.0 0.0 0.00 0.00 0.00 84
20260502071224 7 55 0.0 0.0 0.00 0.00 0.00 74
20260502070652 7 55 0.0 0.0 0.00 0.00 0.00 72
20260502070035 7 55 0.0 0.0 0.00 0.00 0.00 70
20260502063651 8 55 0.0 0.0 0.00 0.00 0.00 70